Find Tian Lian 2-04

NORAD ID: 63361 Int'l Des: 2025-062 Owner: CAST Country: CN operational
HEOCIRCULARGSO

实时位置

正在加载3D地球...

关于 Tian Lian 2-04

正在加载描述...

即将过境

Passes for default location (London). Set your location on the main map for personalized predictions.

高度历史

Loading altitude history...

两行轨道根数

1 63361U 25062A 26104.95898902 -.00000139 00000-0 00000-0 0 9991
2 63361 4.5389 275.3236 0033213 11.0427 342.0427 1.00272159 3962
Epoch: Apr 14, 2026 • Age: 10 hours

当前状态

高度 35880.1 km
速度 3.07 km/s
星下点 2.66°N, 80.41°E
发射日期 Mar 26, 2025
运行时间 1 years
类型 other

技术详情

分类 Payload
质量 5000.00 kg
干质量 2000.00 kg
总质量 5000.00 kg
长度 6.00 m
直径 2.50 m
跨度 20.00 m
形状 Box + 2 Pan + Dish
制造商 CAST
平台类型 DFH-4
阶段状态 In Orbit
所有者/国家 CAST/CN

Most Searched